This is the latest recevied weather packets stored in our database for station/object DB0TGO-13. If no packets are shown the sender has not sent any weather packets the latest 10 day(s).
| Time | Temp. | Humidity | Pressure | Rain* | Wind** | Luminosity | Snow |
|---|---|---|---|---|---|---|---|
| 1777836602 | 21.11° C | 43% | 1004.3 hPa | - | - | - | - |
| 1777835702 | 23.89° C | 32% | 1004.1 hPa | - | - | - | - |
| 1777834802 | 23.89° C | 32% | 1004.1 hPa | - | - | - | - |
| 1777833903 | 25° C | 29% | 1004.1 hPa | - | - | - | - |
| 1777833002 | 25° C | 29% | 1004.1 hPa | - | - | - | - |
| 1777832102 | 26.11° C | 26% | 1004.1 hPa | - | - | - | - |
| 1777831202 | 26.11° C | 26% | 1004.1 hPa | - | - | - | - |
| 1777830302 | 26.67° C | 24% | 1004.2 hPa | - | - | - | - |
| 1777829402 | 26.67° C | 24% | 1004.2 hPa | - | - | - | - |
| 1777828502 | 27.22° C | 24% | 1004.3 hPa | - | - | - | - |
| 1777827602 | 27.22° C | 24% | 1004.3 hPa | - | - | - | - |
| 1777826702 | 27.22° C | 22% | 1004.4 hPa | - | - | - | - |
| 1777825803 | 27.22° C | 22% | 1004.4 hPa | - | - | - | - |
| 1777824902 | 27.78° C | 21% | 1004.6 hPa | - | - | - | - |
| 1777824002 | 27.78° C | 21% | 1004.6 hPa | - | - | - | - |
| 1777823102 | 27.22° C | 20% | 1004.8 hPa | - | - | - | - |
| 1777822202 | 27.22° C | 20% | 1004.8 hPa | - | - | - | - |
| 1777821302 | 28.33° C | 23% | 1005.1 hPa | - | - | - | - |
| 1777820402 | 28.33° C | 23% | 1005.1 hPa | - | - | - | - |
| 1777819502 | 28.33° C | 23% | 1005.3 hPa | - | - | - | - |
| 1777818603 | 28.33° C | 23% | 1005.3 hPa | - | - | - | - |
| 1777817703 | 27.78° C | 26% | 1005.6 hPa | - | - | - | - |
| 1777816802 | 27.78° C | 26% | 1005.6 hPa | - | - | - | - |
| 1777815902 | 27.22° C | 26% | 1005.9 hPa | - | - | - | - |
| 1777815002 | 27.22° C | 26% | 1005.9 hPa | - | - | - | - |
* Rain since midnight (hover to see other rain measurements)
** Current wind speed in m/s (hover to see current wind gust speed)